| time (UTC) | temp C | wind direction | speed KPH | gust KPH | rain 1hr cm | rain 24hr cm | rain mn cm | humidity % | barometer mb |
| 20260506005048 | 16 | 325 | 3.2 | 9.7 | 0.00 | 0.00 | 0.00 | 73 | 1014.1 |
| 20260506004622 | 16 | 320 | 0.0 | 8.0 | 0.00 | 0.00 | 0.00 | 73 | 1014.1 |
| 20260506004050 | 16 | 318 | 1.6 | 14.5 | 0.00 | 0.00 | 0.00 | 73 | 1014.1 |
| 20260506003548 | 16 | 318 | 4.8 | 14.5 | 0.00 | 0.00 | 0.00 | 74 | 1014.1 |
| 20260506003048 | 16 | 321 | 1.6 | 12.9 | 0.00 | 0.00 | 0.00 | 73 | 1014.1 |
| 20260506002549 | 16 | 317 | 3.2 | 12.9 | 0.00 | 0.00 | 0.00 | 73 | 1014.1 |
| 20260506002052 | 16 | 324 | 0.0 | 14.5 | 0.00 | 0.00 | 0.00 | 75 | 1014.1 |
| 20260506001547 | 16 | 327 | 1.6 | 14.5 | 0.00 | 0.00 | 0.00 | 74 | 1014.1 |
| 20260506001047 | 16 | 327 | 1.6 | 9.7 | 0.00 | 0.00 | 0.00 | 73 | 1014.1 |
| 20260506000545 | 16 | 327 | 1.6 | 9.7 | 0.00 | 0.00 | 0.00 | 73 | 1014.1 |
| 20260506000047 | 16 | 328 | 0.0 | 9.7 | 0.00 | 0.00 | 0.00 | 74 | 1014.2 |
| 20260505235545 | 16 | 329 | 1.6 | 8.0 | 0.00 | 0.00 | 0.00 | 73 | 1014.1 |
| 20260505235045 | 16 | 330 | 0.0 | 8.0 | 0.00 | 0.00 | 0.00 | 72 | 1014.2 |
| 20260505234608 | 16 | 330 | 0.0 | 6.4 | 0.00 | 0.00 | 0.00 | 72 | 1014.2 |
| 20260505234045 | 16 | 329 | 1.6 | 12.9 | 0.00 | 0.00 | 0.00 | 74 | 1014.2 |
| 20260505233544 | 16 | 327 | 3.2 | 12.9 | 0.00 | 0.00 | 0.00 | 73 | 1014.3 |
| 20260505233044 | 16 | 333 | 0.0 | 4.8 | 0.00 | 0.00 | 0.00 | 74 | 1014.3 |
| 20260505232544 | 16 | 333 | 0.0 | 8.0 | 0.00 | 0.00 | 0.00 | 72 | 1014.4 |
| 20260505232046 | 16 | 333 | 1.6 | 6.4 | 0.00 | 0.00 | 0.00 | 73 | 1014.4 |
| 20260505231544 | 16 | 333 | 0.0 | 3.2 | 0.00 | 0.00 | 0.00 | 74 | 1014.4 |
| 20260505231044 | 16 | 333 | 0.0 | 6.4 | 0.00 | 0.00 | 0.00 | 74 | 1014.5 |
| 20260505230543 | 16 | 333 | 0.0 | 12.9 | 0.00 | 0.00 | 0.00 | 73 | 1014.5 |
| 20260505230047 | 16 | 334 | 6.4 | 12.9 | 0.00 | 0.00 | 0.00 | 73 | 1014.5 |
| 20260505225545 | 16 | 324 | 1.6 | 9.7 | 0.00 | 0.00 | 0.00 | 74 | 1014.4 |
| 20260505225043 | 16 | 325 | 0.0 | 9.7 | 0.00 | 0.00 | 0.00 | 75 | 1014.5 |
| 20260505224543 | 16 | 325 | 0.0 | 12.9 | 0.00 | 0.00 | 0.00 | 73 | 1014.5 |
| 20260505224043 | 16 | 325 | 0.0 | 12.9 | 0.00 | 0.00 | 0.00 | 72 | 1014.6 |
| 20260505223541 | 16 | 323 | 3.2 | 8.0 | 0.00 | 0.00 | 0.00 | 73 | 1014.6 |
| 20260505223057 | 16 | 323 | 0.0 | 8.0 | 0.00 | 0.00 | 0.00 | 73 | 1014.7 |
| 20260505222543 | 16 | 323 | 4.8 | 8.0 | 0.00 | 0.00 | 0.00 | 72 | 1014.7 |
| 20260505222041 | 16 | 321 | 0.0 | 4.8 | 0.00 | 0.00 | 0.00 | 73 | 1014.7 |
| 20260505221556 | 16 | 321 | 0.0 | 12.9 | 0.00 | 0.00 | 0.00 | 73 | 1014.8 |
| 20260505221040 | 16 | 321 | 6.4 | 12.9 | 0.00 | 0.00 | 0.00 | 72 | 1014.9 |
| 20260505220542 | 16 | 323 | 1.6 | 9.7 | 0.00 | 0.00 | 0.00 | 72 | 1014.8 |
| 20260505220040 | 16 | 322 | 3.2 | 9.7 | 0.00 | 0.00 | 0.00 | 73 | 1014.8 |
| 20260505215539 | 16 | 322 | 0.0 | 14.5 | 0.00 | 0.00 | 0.00 | 73 | 1014.9 |
| 20260505215039 | 16 | 324 | 4.8 | 14.5 | 0.00 | 0.00 | 0.00 | 74 | 1014.9 |
| 20260505214543 | 16 | 312 | 0.0 | 12.9 | 0.00 | 0.00 | 0.00 | 75 | 1014.9 |
| 20260505214038 | 16 | 312 | 1.6 | 12.9 | 0.00 | 0.00 | 0.00 | 75 | 1015.0 |
| 20260505213537 | 15 | 306 | 3.2 | 12.9 | 0.00 | 0.00 | 0.00 | 73 | 1015.1 |
| 20260505213037 | 16 | 304 | 4.8 | 12.9 | 0.00 | 0.00 | 0.00 | 73 | 1015.1 |
| 20260505212537 | 15 | 327 | 4.8 | 14.5 | 0.00 | 0.00 | 0.00 | 73 | 1015.1 |
| 20260505212037 | 15 | 326 | 3.2 | 9.7 | 0.00 | 0.00 | 0.00 | 75 | 1015.0 |
| 20260505211537 | 15 | 311 | 0.0 | 12.9 | 0.00 | 0.00 | 0.00 | 75 | 1015.1 |
| 20260505211035 | 15 | 311 | 1.6 | 12.9 | 0.00 | 0.00 | 0.00 | 73 | 1015.1 |
| 20260505210535 | 15 | 324 | 4.8 | 9.7 | 0.00 | 0.00 | 0.00 | 74 | 1015.1 |
| 20260505210035 | 15 | 325 | 4.8 | 9.7 | 0.00 | 0.00 | 0.00 | 73 | 1015.1 |
| 20260505205537 | 15 | 323 | 3.2 | 12.9 | 0.00 | 0.00 | 0.00 | 73 | 1015.1 |
| 20260505205036 | 16 | 324 | 0.0 | 8.0 | 0.00 | 0.00 | 0.00 | 73 | 1015.1 |
| 20260505204535 | 15 | 325 | 1.6 | 9.7 | 0.00 | 0.00 | 0.00 | 75 | 1015.1 |
| 20260505204033 | 15 | 325 | 3.2 | 9.7 | 0.00 | 0.00 | 0.00 | 74 | 1015.1 |
| 20260505203534 | 15 | 325 | 0.0 | 8.0 | 0.00 | 0.00 | 0.00 | 77 | 1015.1 |
| 20260505203033 | 15 | 325 | 1.6 | 9.7 | 0.00 | 0.00 | 0.00 | 75 | 1015.1 |
| 20260505202533 | 15 | 325 | 1.6 | 16.1 | 0.00 | 0.00 | 0.00 | 74 | 1015.1 |
| 20260505202032 | 15 | 323 | 4.8 | 16.1 | 0.00 | 0.00 | 0.00 | 75 | 1015.1 |
| 20260505201532 | 15 | 347 | 8.0 | 12.9 | 0.00 | 0.00 | 0.00 | 74 | 1015.1 |
| 20260505201031 | 15 | 314 | 0.0 | 9.7 | 0.00 | 0.00 | 0.00 | 76 | 1015.1 |
| 20260505200532 | 15 | 314 | 3.2 | 9.7 | 0.00 | 0.00 | 0.00 | 75 | 1015.1 |
| 20260505200034 | 15 | 314 | 0.0 | 8.0 | 0.00 | 0.00 | 0.00 | 76 | 1015.1 |
| 20260505195531 | 15 | 314 | 0.0 | 9.7 | 0.00 | 0.00 | 0.00 | 77 | 1015.2 |
| 20260505195029 | 15 | 314 | 1.6 | 9.7 | 0.00 | 0.00 | 0.00 | 76 | 1015.2 |
| 20260505194529 | 15 | 313 | 3.2 | 16.1 | 0.00 | 0.00 | 0.00 | 75 | 1015.3 |
| 20260505194029 | 15 | 312 | 3.2 | 16.1 | 0.00 | 0.00 | 0.00 | 76 | 1015.3 |
| 20260505193528 | 15 | 333 | 4.8 | 12.9 | 0.00 | 0.00 | 0.00 | 76 | 1015.3 |
| 20260505193028 | 15 | 336 | 0.0 | 9.7 | 0.00 | 0.00 | 0.00 | 77 | 1015.3 |
| 20260505192528 | 15 | 335 | 1.6 | 9.7 | 0.00 | 0.00 | 0.00 | 76 | 1015.3 |
| 20260505192028 | 15 | 336 | 3.2 | 9.7 | 0.00 | 0.00 | 0.00 | 77 | 1015.3 |
| 20260505191527 | 15 | 333 | 0.0 | 12.9 | 0.00 | 0.00 | 0.00 | 78 | 1015.3 |
| 20260505191027 | 14 | 336 | 3.2 | 12.9 | 0.00 | 0.00 | 0.00 | 77 | 1015.2 |
| 20260505190530 | 14 | 339 | 3.2 | 12.9 | 0.00 | 0.00 | 0.00 | 77 | 1015.2 |
| 20260505190026 | 14 | 348 | 1.6 | 9.7 | 0.00 | 0.00 | 0.00 | 77 | 1015.3 |
| 20260505185526 | 14 | 350 | 1.6 | 9.7 | 0.00 | 0.00 | 0.00 | 77 | 1015.2 |
| 20260505185026 | 14 | 338 | 0.0 | 9.7 | 0.00 | 0.00 | 0.00 | 77 | 1015.2 |
| 20260505184528 | 14 | 325 | 0.0 | 9.7 | 0.00 | 0.00 | 0.00 | 77 | 1015.2 |
| 20260505184026 | 14 | 325 | 3.2 | 8.0 | 0.00 | 0.00 | 0.00 | 77 | 1015.1 |
| 20260505183526 | 14 | 325 | 0.0 | 4.8 | 0.00 | 0.00 | 0.00 | 79 | 1015.2 |
| 20260505183040 | 13 | 325 | 0.0 | 8.0 | 0.00 | 0.00 | 0.00 | 78 | 1015.2 |
| 20260505182526 | 14 | 325 | 3.2 | 14.5 | 0.00 | 0.00 | 0.00 | 78 | 1015.2 |
| 20260505182025 | 15 | 327 | 3.2 | 14.5 | 0.00 | 0.00 | 0.00 | 78 | 1015.1 |
| 20260505181525 | 14 | 332 | 0.0 | 1.6 | 0.00 | 0.00 | 0.00 | 77 | 1015.1 |
| 20260505181023 | 13 | 332 | 0.0 | 1.6 | 0.00 | 0.00 | 0.00 | 79 | 1015.2 |
| 20260505180522 | 13 | 332 | 0.0 | 6.4 | 0.00 | 0.00 | 0.00 | 78 | 1015.2 |
| 20260505180023 | 13 | 332 | 1.6 | 8.0 | 0.00 | 0.00 | 0.00 | 78 | 1015.2 |
| 20260505175522 | 13 | 332 | 0.0 | 9.7 | 0.00 | 0.00 | 0.00 | 81 | 1015.3 |
| 20260505175023 | 13 | 332 | 6.4 | 8.0 | 0.00 | 0.00 | 0.00 | 79 | 1015.3 |
| 20260505174521 | 13 | 332 | 0.0 | 1.6 | 0.00 | 0.00 | 0.00 | 81 | 1015.3 |
| 20260505174021 | 13 | 332 | 0.0 | 1.6 | 0.00 | 0.00 | 0.00 | 79 | 1015.3 |
| 20260505173519 | 13 | 332 | 0.0 | 1.6 | 0.00 | 0.00 | 0.00 | 80 | 1015.2 |
| 20260505173022 | 13 | 332 | 0.0 | 6.4 | 0.00 | 0.00 | 0.00 | 82 | 1015.2 |
| 20260505172520 | 13 | 332 | 0.0 | 6.4 | 0.00 | 0.00 | 0.00 | 82 | 1015.2 |
| 20260505172018 | 12 | 332 | 1.6 | 6.4 | 0.00 | 0.00 | 0.00 | 82 | 1015.1 |
| 20260505171518 | 12 | 332 | 0.0 | 4.8 | 0.00 | 0.00 | 0.00 | 83 | 1015.1 |
| 20260505171018 | 12 | 332 | 1.6 | 4.8 | 0.00 | 0.00 | 0.00 | 82 | 1015.2 |
| 20260505170517 | 12 | 332 | 0.0 | 3.2 | 0.00 | 0.00 | 0.00 | 83 | 1015.1 |
| 20260505170019 | 12 | 332 | 0.0 | 3.2 | 0.00 | 0.00 | 0.00 | 84 | 1015.1 |
| 20260505165517 | 12 | 332 | 0.0 | 1.6 | 0.00 | 0.00 | 0.00 | 85 | 1015.1 |
| 20260505165017 | 12 | 332 | 0.0 | 3.2 | 0.00 | 0.00 | 0.00 | 84 | 1015.1 |
| 20260505164519 | 12 | 332 | 0.0 | 3.2 | 0.00 | 0.00 | 0.00 | 85 | 1015.1 |
| 20260505164017 | 12 | 332 | 0.0 | 1.6 | 0.00 | 0.00 | 0.00 | 85 | 1015.2 |
| 20260505163517 | 12 | 332 | 0.0 | 1.6 | 0.00 | 0.00 | 0.00 | 86 | 1015.1 |
| 20260505163017 | 12 | 332 | 0.0 | 1.6 | 0.00 | 0.00 | 0.00 | 86 | 1015.2 |
| 20260505162517 | 12 | 332 | 0.0 | 3.2 | 0.00 | 0.00 | 0.00 | 86 | 1015.1 |
| 20260505162017 | 11 | 332 | 0.0 | 6.4 | 0.00 | 0.00 | 0.00 | 86 | 1015.1 |
| 20260505161520 | 11 | 332 | 3.2 | 6.4 | 0.00 | 0.00 | 0.00 | 86 | 1015.2 |
| 20260505161016 | 11 | 332 | 0.0 | 4.8 | 0.00 | 0.00 | 0.00 | 86 | 1015.2 |
| 20260505160516 | 11 | 332 | 0.0 | 1.6 | 0.00 | 0.00 | 0.00 | 86 | 1015.2 |
| 20260505153017 | 11 | 332 | 0.0 | 0.0 | 0.00 | 0.00 | 0.00 | 87 | 1015.1 |
| 20260505152513 | 11 | 332 | 0.0 | 0.0 | 0.00 | 0.00 | 0.00 | 87 | 1015.1 |
| 20260505152014 | 11 | 332 | 0.0 | 1.6 | 0.00 | 0.00 | 0.00 | 87 | 1015.0 |
| 20260505151513 | 11 | 332 | 0.0 | 1.6 | 0.00 | 0.00 | 0.00 | 87 | 1015.0 |
| 20260505151014 | 11 | 332 | 0.0 | 1.6 | 0.00 | 0.00 | 0.00 | 87 | 1015.1 |
| 20260505150513 | 11 | 332 | 0.0 | 1.6 | 0.00 | 0.00 | 0.00 | 88 | 1015.0 |
| 20260505140510 | 11 | 332 | 0.0 | 0.0 | 0.00 | 0.00 | 0.00 | 89 | 1014.6 |
| 20260505125002 | 11 | 332 | 0.0 | 1.6 | 0.00 | 0.00 | 0.00 | 88 | 1014.1 |
| 20260505124502 | 11 | 332 | 0.0 | 1.6 | 0.00 | 0.00 | 0.00 | 88 | 1014.1 |
| 20260505124002 | 11 | 332 | 0.0 | 1.6 | 0.00 | 0.00 | 0.00 | 88 | 1013.9 |
| 20260505123600 | 11 | 332 | 0.0 | 1.6 | 0.00 | 0.00 | 0.00 | 88 | 1013.9 |
| 20260505123100 | 11 | 332 | 0.0 | 1.6 | 0.00 | 0.00 | 0.00 | 88 | 1013.9 |
| 20260505122602 | 11 | 332 | 0.0 | 1.6 | 0.00 | 0.00 | 0.00 | 88 | 1013.9 |
| 20260505122059 | 11 | 332 | 0.0 | 6.4 | 0.00 | 0.00 | 0.00 | 88 | 1013.9 |
| 20260505121600 | 11 | 332 | 0.0 | 6.4 | 0.00 | 0.00 | 0.00 | 88 | 1013.8 |
| 20260505121059 | 11 | 332 | 0.0 | 6.4 | 0.00 | 0.00 | 0.00 | 88 | 1013.9 |
| 20260505120559 | 11 | 332 | 0.0 | 6.4 | 0.00 | 0.00 | 0.00 | 87 | 1013.7 |
| 20260505120112 | 11 | 332 | 0.0 | 4.8 | 0.00 | 0.00 | 0.00 | 87 | 1013.7 |
| 20260505115559 | 11 | 332 | 0.0 | 0.0 | 0.00 | 0.00 | 0.00 | 87 | 1013.8 |
| 20260505115057 | 11 | 332 | 0.0 | 1.6 | 0.00 | 0.00 | 0.00 | 87 | 1013.7 |
| 20260505114557 | 11 | 332 | 0.0 | 3.2 | 0.00 | 0.00 | 0.00 | 87 | 1013.7 |
| 20260505114057 | 11 | 332 | 0.0 | 3.2 | 0.00 | 0.00 | 0.00 | 87 | 1013.8 |
| 20260505113556 | 11 | 332 | 0.0 | 3.2 | 0.00 | 0.00 | 0.00 | 87 | 1013.8 |
| 20260505113058 | 11 | 332 | 0.0 | 3.2 | 0.00 | 0.00 | 0.00 | 87 | 1013.8 |
| 20260505112556 | 11 | 332 | 0.0 | 1.6 | 0.00 | 0.00 | 0.00 | 87 | 1013.8 |
| 20260505112056 | 11 | 332 | 0.0 | 1.6 | 0.00 | 0.00 | 0.00 | 87 | 1013.8 |
| 20260505111556 | 11 | 332 | 0.0 | 0.0 | 0.00 | 0.00 | 0.00 | 87 | 1013.9 |
| 20260505111056 | 11 | 332 | 0.0 | 4.8 | 0.00 | 0.00 | 0.00 | 87 | 1013.9 |
| 20260505110554 | 11 | 332 | 0.0 | 4.8 | 0.00 | 0.00 | 0.00 | 86 | 1013.9 |
| 20260505110105 | 11 | 332 | 0.0 | 3.2 | 0.00 | 0.00 | 0.00 | 86 | 1013.7 |
| 20260505102050 | 11 | 332 | 0.0 | 1.6 | 0.00 | 0.00 | 0.00 | 85 | 1013.5 |
| 20260505101550 | 11 | 332 | 0.0 | 4.8 | 0.00 | 0.00 | 0.00 | 85 | 1013.5 |
| 20260505101048 | 11 | 332 | 1.6 | 4.8 | 0.00 | 0.00 | 0.00 | 85 | 1013.4 |
| 20260505100550 | 11 | 332 | 0.0 | 1.6 | 0.00 | 0.00 | 0.00 | 85 | 1013.4 |
| 20260505100048 | 11 | 332 | 0.0 | 0.0 | 0.00 | 0.00 | 0.00 | 85 | 1013.3 |
| 20260505095549 | 11 | 332 | 0.0 | 4.8 | 0.00 | 0.00 | 0.00 | 85 | 1013.3 |
| 20260505095046 | 11 | 332 | 0.0 | 4.8 | 0.00 | 0.00 | 0.00 | 85 | 1013.2 |
| 20260505094549 | 11 | 332 | 0.0 | 1.6 | 0.00 | 0.00 | 0.00 | 85 | 1013.3 |
| 20260505094046 | 12 | 332 | 0.0 | 1.6 | 0.00 | 0.00 | 0.00 | 85 | 1013.3 |
| 20260505093546 | 12 | 332 | 0.0 | 1.6 | 0.00 | 0.00 | 0.00 | 85 | 1013.2 |
| 20260505093045 | 12 | 332 | 0.0 | 0.0 | 0.00 | 0.00 | 0.00 | 84 | 1013.3 |
| 20260505092548 | 12 | 332 | 0.0 | 6.4 | 0.00 | 0.00 | 0.00 | 84 | 1013.2 |
| 20260505092044 | 12 | 332 | 0.0 | 6.4 | 0.00 | 0.00 | 0.00 | 84 | 1013.2 |
| 20260505091545 | 12 | 332 | 1.6 | 8.0 | 0.00 | 0.00 | 0.00 | 84 | 1013.2 |
| 20260505091042 | 12 | 332 | 0.0 | 8.0 | 0.00 | 0.00 | 0.00 | 84 | 1013.1 |
| 20260505090542 | 12 | 332 | 1.6 | 8.0 | 0.00 | 0.00 | 0.00 | 83 | 1013.1 |
| 20260505090044 | 12 | 332 | 0.0 | 4.8 | 0.00 | 0.00 | 0.00 | 83 | 1013.1 |
| 20260505085541 | 12 | 332 | 0.0 | 4.8 | 0.00 | 0.00 | 0.00 | 83 | 1013.1 |
| 20260505085043 | 12 | 332 | 0.0 | 9.7 | 0.00 | 0.00 | 0.00 | 83 | 1013.2 |
| 20260505084547 | 12 | 332 | 3.2 | 9.7 | 0.00 | 0.00 | 0.00 | 83 | 1013.1 |
| 20260505084040 | 12 | 332 | 0.0 | 8.0 | 0.00 | 0.00 | 0.00 | 83 | 1013.1 |
| 20260505083541 | 12 | 332 | 0.0 | 4.8 | 0.00 | 0.00 | 0.00 | 83 | 1013.1 |
| 20260505083040 | 12 | 332 | 0.0 | 4.8 | 0.00 | 0.00 | 0.00 | 82 | 1013.0 |
| 20260505082539 | 12 | 332 | 0.0 | 4.8 | 0.00 | 0.00 | 0.00 | 83 | 1013.1 |
| 20260505082039 | 12 | 332 | 0.0 | 4.8 | 0.00 | 0.00 | 0.00 | 82 | 1013.1 |
| 20260505081539 | 12 | 332 | 0.0 | 4.8 | 0.00 | 0.00 | 0.00 | 82 | 1013.1 |
| 20260505081037 | 12 | 332 | 1.6 | 4.8 | 0.00 | 0.00 | 0.00 | 82 | 1013.1 |
| 20260505080539 | 12 | 332 | 1.6 | 4.8 | 0.00 | 0.00 | 0.00 | 82 | 1013.1 |
| 20260505080040 | 12 | 332 | 0.0 | 6.4 | 0.00 | 0.00 | 0.00 | 82 | 1013.1 |
| 20260505075537 | 12 | 332 | 0.0 | 6.4 | 0.00 | 0.00 | 0.00 | 82 | 1013.1 |
| 20260505075037 | 12 | 332 | 0.0 | 0.0 | 0.00 | 0.00 | 0.00 | 82 | 1013.0 |
| 20260505074538 | 12 | 332 | 0.0 | 1.6 | 0.00 | 0.00 | 0.00 | 82 | 1013.1 |
| 20260505074036 | 12 | 332 | 0.0 | 4.8 | 0.00 | 0.00 | 0.00 | 82 | 1012.9 |
| 20260505073538 | 12 | 332 | 0.0 | 4.8 | 0.00 | 0.00 | 0.00 | 82 | 1012.9 |
| 20260505073042 | 12 | 332 | 0.0 | 1.6 | 0.00 | 0.00 | 0.00 | 82 | 1012.8 |
| 20260505072535 | 13 | 332 | 0.0 | 1.6 | 0.00 | 0.00 | 0.00 | 82 | 1012.8 |
| 20260505072034 | 13 | 332 | 0.0 | 0.0 | 0.00 | 0.00 | 0.00 | 81 | 1012.9 |
| 20260505071534 | 13 | 332 | 0.0 | 3.2 | 0.00 | 0.00 | 0.00 | 81 | 1012.7 |
| 20260505071136 | 13 | 332 | 0.0 | 3.2 | 0.00 | 0.00 | 0.00 | 82 | 1012.8 |
| 20260505070532 | 13 | 332 | 0.0 | 0.0 | 0.00 | 0.00 | 0.00 | 81 | 1012.8 |
| 20260505070039 | 13 | 332 | 0.0 | 0.0 | 0.00 | 0.00 | 0.00 | 82 | 1012.7 |
| 20260505065530 | 13 | 332 | 0.0 | 0.0 | 0.00 | 0.00 | 0.00 | 81 | 1012.7 |
| 20260505065029 | 13 | 332 | 0.0 | 0.0 | 0.00 | 0.00 | 0.00 | 81 | 1012.6 |
| 20260505064532 | 13 | 332 | 0.0 | 3.2 | 0.00 | 0.00 | 0.00 | 81 | 1012.6 |
| 20260505064029 | 13 | 332 | 0.0 | 3.2 | 0.00 | 0.00 | 0.00 | 81 | 1012.7 |
| 20260505063532 | 13 | 332 | 0.0 | 0.0 | 0.00 | 0.00 | 0.00 | 80 | 1012.6 |
| 20260505063029 | 13 | 332 | 0.0 | 4.8 | 0.00 | 0.00 | 0.00 | 80 | 1012.6 |
| 20260505062529 | 13 | 332 | 0.0 | 4.8 | 0.00 | 0.00 | 0.00 | 80 | 1012.6 |
| 20260505062028 | 13 | 332 | 0.0 | 6.4 | 0.00 | 0.00 | 0.00 | 81 | 1012.6 |
| 20260505061537 | 13 | 332 | 0.0 | 6.4 | 0.00 | 0.00 | 0.00 | 81 | 1012.6 |
| 20260505061028 | 13 | 332 | 0.0 | 6.4 | 0.00 | 0.00 | 0.00 | 80 | 1012.5 |
| 20260505060528 | 13 | 332 | 0.0 | 6.4 | 0.00 | 0.00 | 0.00 | 80 | 1012.6 |
| 20260505060028 | 13 | 332 | 0.0 | 3.2 | 0.00 | 0.00 | 0.00 | 79 | 1012.6 |
| 20260505055528 | 13 | 332 | 0.0 | 3.2 | 0.00 | 0.00 | 0.00 | 80 | 1012.6 |
| 20260505055028 | 13 | 332 | 0.0 | 1.6 | 0.00 | 0.00 | 0.00 | 79 | 1012.6 |
| 20260505054535 | 13 | 332 | 0.0 | 1.6 | 0.00 | 0.00 | 0.00 | 79 | 1012.6 |
| 20260505054028 | 13 | 332 | 0.0 | 1.6 | 0.00 | 0.00 | 0.00 | 79 | 1012.6 |
| 20260505053531 | 14 | 332 | 0.0 | 9.7 | 0.00 | 0.00 | 0.00 | 79 | 1012.5 |
| 20260505053031 | 14 | 332 | 1.6 | 9.7 | 0.00 | 0.00 | 0.00 | 79 | 1012.6 |
| 20260505052527 | 14 | 333 | 3.2 | 9.7 | 0.00 | 0.00 | 0.00 | 79 | 1012.6 |
| 20260505052027 | 14 | 334 | 0.0 | 4.8 | 0.00 | 0.00 | 0.00 | 79 | 1012.6 |
| 20260505051528 | 14 | 334 | 0.0 | 4.8 | 0.00 | 0.00 | 0.00 | 79 | 1012.5 |
| 20260505051028 | 14 | 334 | 0.0 | 3.2 | 0.00 | 0.00 | 0.00 | 79 | 1012.4 |
| 20260505050526 | 14 | 334 | 0.0 | 1.6 | 0.00 | 0.00 | 0.00 | 78 | 1012.4 |
| 20260505041537 | 15 | 334 | 0.0 | 0.0 | 0.00 | 0.00 | 0.00 | 78 | 1011.6 |
| 20260505041025 | 15 | 334 | 0.0 | 0.0 | 0.00 | 0.00 | 0.00 | 78 | 1011.6 |
| 20260505040526 | 15 | 334 | 0.0 | 0.0 | 0.00 | 0.00 | 0.00 | 78 | 1011.5 |
| 20260505040036 | 15 | 334 | 0.0 | 0.0 | 0.00 | 0.00 | 0.00 | 78 | 1011.5 |
| 20260505035525 | 15 | 334 | 0.0 | 6.4 | 0.00 | 0.00 | 0.00 | 78 | 1011.4 |
| 20260505035024 | 15 | 334 | 0.0 | 6.4 | 0.00 | 0.00 | 0.00 | 78 | 1011.3 |
| 20260505034525 | 15 | 334 | 0.0 | 1.6 | 0.00 | 0.00 | 0.00 | 79 | 1011.1 |
| 20260505034024 | 15 | 334 | 0.0 | 1.6 | 0.00 | 0.00 | 0.00 | 79 | 1011.0 |
| 20260505033526 | 16 | 334 | 0.0 | 0.0 | 0.00 | 0.00 | 0.00 | 77 | 1010.9 |
| 20260505033024 | 16 | 334 | 0.0 | 0.0 | 0.00 | 0.00 | 0.00 | 77 | 1010.8 |
| 20260505032524 | 16 | 334 | 0.0 | 0.0 | 0.00 | 0.00 | 0.00 | 76 | 1010.7 |
| 20260505032023 | 16 | 334 | 0.0 | 1.6 | 0.00 | 0.00 | 0.00 | 76 | 1010.5 |
| 20260505031536 | 16 | 334 | 0.0 | 4.8 | 0.00 | 0.00 | 0.00 | 75 | 1010.5 |
| 20260505031023 | 17 | 334 | 0.0 | 8.0 | 0.00 | 0.00 | 0.00 | 75 | 1010.4 |
| 20260505030523 | 17 | 334 | 3.2 | 8.0 | 0.00 | 0.00 | 0.00 | 73 | 1010.3 |
| 20260505030023 | 17 | 333 | 0.0 | 6.4 | 0.00 | 0.00 | 0.00 | 74 | 1010.2 |
| 20260505025524 | 17 | 333 | 0.0 | 6.4 | 0.00 | 0.00 | 0.00 | 73 | 1010.1 |
| 20260505025023 | 17 | 333 | 1.6 | 9.7 | 0.00 | 0.00 | 0.00 | 72 | 1010.0 |
| 20260505024523 | 18 | 334 | 1.6 | 12.9 | 0.00 | 0.00 | 0.00 | 71 | 1010.1 |
| 20260505024022 | 18 | 327 | 0.0 | 6.4 | 0.00 | 0.00 | 0.00 | 71 | 1010.0 |
| 20260505023524 | 18 | 327 | 1.6 | 6.4 | 0.00 | 0.00 | 0.00 | 71 | 1009.8 |
| 20260505023022 | 18 | 327 | 0.0 | 6.4 | 0.00 | 0.00 | 0.00 | 70 | 1009.8 |
| 20260505022522 | 18 | 327 | 0.0 | 9.7 | 0.00 | 0.00 | 0.00 | 70 | 1009.8 |
| 20260505022022 | 19 | 327 | 3.2 | 9.7 | 0.00 | 0.00 | 0.00 | 69 | 1009.8 |
| 20260505021522 | 19 | 331 | 1.6 | 12.9 | 0.00 | 0.00 | 0.00 | 70 | 1009.9 |
| 20260505021021 | 19 | 339 | 3.2 | 12.9 | 0.00 | 0.00 | 0.00 | 69 | 1009.9 |
| 20260505020521 | 19 | 346 | 3.2 | 9.7 | 0.00 | 0.00 | 0.00 | 68 | 1009.9 |
| 20260505020021 | 19 | 351 | 4.8 | 14.5 | 0.00 | 0.00 | 0.00 | 68 | 1009.8 |
| 20260505015521 | 19 | 315 | 4.8 | 14.5 | 0.00 | 0.00 | 0.00 | 68 | 1009.8 |
| 20260505015021 | 19 | 300 | 0.0 | 16.1 | 0.00 | 0.00 | 0.00 | 68 | 1009.7 |
| 20260505014528 | 20 | 300 | 1.6 | 16.1 | 0.00 | 0.00 | 0.00 | 68 | 1009.7 |
| 20260505014021 | 20 | 322 | 0.0 | 12.9 | 0.00 | 0.00 | 0.00 | 66 | 1009.8 |
| 20260505013522 | 20 | 322 | 4.8 | 12.9 | 0.00 | 0.00 | 0.00 | 66 | 1009.8 |
| 20260505013020 | 20 | 317 | 0.0 | 8.0 | 0.00 | 0.00 | 0.00 | 67 | 1009.8 |
| 20260505012520 | 20 | 317 | 0.0 | 12.9 | 0.00 | 0.00 | 0.00 | 66 | 1009.9 |
| 20260505012020 | 20 | 317 | 3.2 | 12.9 | 0.00 | 0.00 | 0.00 | 66 | 1010.0 |
| 20260505011520 | 20 | 334 | 1.6 | 8.0 | 0.00 | 0.00 | 0.00 | 66 | 1010.0 |
| 20260505011020 | 20 | 343 | 0.0 | 9.7 | 0.00 | 0.00 | 0.00 | 66 | 1009.9 |
| 20260505010519 | 20 | 343 | 4.8 | 9.7 | 0.00 | 0.00 | 0.00 | 64 | 1010.0 |
| 20260505010024 | 20 | 313 | 3.2 | 9.7 | 0.00 | 0.00 | 0.00 | 65 | 1010.0 |
| 20260505005519 | 20 | 315 | 0.0 | 12.9 | 0.00 | 0.00 | 0.00 | 67 | 1010.0 |